Regional Weather Roundup
Issued by NWS Wilmington, NC

Home | Current Version | Previous Version | Text Only | Print | Product List | Glossary On
Versions: 1 2 3 4 5 6 7 8 9 10 11 12 13 14 15 16 17 18 19 20 21 22 23 24 25 26 27
000
ASUS42 KILM 230713
RWRILM
RWRILM
REGIONAL HOURLY WEATHER ROUNDUP
NATIONAL WEATHER SERVICE WILMINGTON NC
300 AM EDT TUE MAY 23 2017

NOTE: "FAIR" INDICATES FEW OR NO CLOUDS BELOW 12,000 FEET WITH NO
SIGNIFICANT WEATHER AND/OR OBSTRUCTIONS TO VISIBILITY.

...............WFO WILMINGTON COUNTY WARNING AREA...............

......COASTAL NC AND SC COUNTIES......

CITY           SKY/WX    TMP DP  RH WIND       PRES   REMARKS
WILMINGTON     CLOUDY    68  67  96 E3        29.90F
N MYRTLE BEACH RAIN      72  68  87 E12       29.89F
MYRTLE BEACH   LGT RAIN  71  69  93 E9        29.90F

......INLAND NC AND SC COUNTIES.......

CITY           SKY/WX    TMP DP  RH WIND       PRES   REMARKS
LUMBERTON      CLOUDY    68  67  96 CALM      29.89F
ELIZABETHTOWN  CLOUDY    67  67 100 CALM      29.91F
WHITEVILLE     MOCLDY    67  65  93 CALM      29.90F
FLORENCE       CLOUDY    68  68 100 SE7       29.89F
DARLINGTON     MOCLDY    68  67  96 E3        29.89F
KINGSTREE      CLOUDY    68  66  94 CALM      29.88F
HARTSVILLE     CLOUDY    68  66  94 CALM      29.89F
BENNETTSVILLE  DRIZZLE   70  70 100 CALM      29.89F
CONWAY         LGT RAIN  68  68 100 CALM      29.89F
GEORGETOWN     NOT AVBL
MARION         CLOUDY    64  64 100 SE3       29.89F

....................REST OF NORTH CAROLINA......................

.........EASTERN NC.........

CITY           SKY/WX    TMP DP  RH WIND       PRES   REMARKS
CAPE HATTERAS  CLOUDY    73  69  87 SW10      29.92F
JACKSONVILLE   CLOUDY    67  66  97 CALM      29.90F
MOREHEAD CITY  CLOUDY    72  70  93 SW3       29.91F
KENANSVILLE    CLOUDY    66  66 100 CALM      29.91F FOG
NEW BERN       CLOUDY    67  67 100 CALM      29.91F
ELIZABETH CITY CLOUDY    68  68 100 W3        29.92F

.........CENTRAL NC.........

CITY           SKY/WX    TMP DP  RH WIND       PRES   REMARKS
RALEIGH DURHAM CLOUDY    68  67  96 CALM      29.91F
ROCKY MOUNT    CLOUDY    68  68 100 CALM      29.90F
ROANOKE RAPIDS NOT AVBL
FAYETTEVILLE   CLOUDY    69  68  96 S3        29.90F
HOFFMAN        MOCLDY    68  67  97 E3        29.91F

.........WESTERN NC.........

CITY           SKY/WX    TMP DP  RH WIND       PRES   REMARKS
CHARLOTTE      LGT RAIN  68  65  90 S3        29.89F
GREENSBORO     LGT RAIN  66  66 100 E7        29.90F
HICKORY        NOT AVBL
BOONE          NOT AVBL
ASHEVILLE      NOT AVBL

.....................REST OF SOUTH CAROLINA.....................

.........EASTERN SC.........

CITY           SKY/WX    TMP DP  RH WIND       PRES   REMARKS
CHARLESTON     LGT RAIN  70  68  93 S9        29.87F
BEAUFORT MCAS  CLOUDY    71  71 100 SE5       29.87F
HILTON HEAD    CLOUDY    72  72 100 S5        29.88F

.........CENTRAL SC.........

CITY           SKY/WX    TMP DP  RH WIND       PRES   REMARKS
COLUMBIA       CLOUDY    71  68  90 CALM      29.86F
ORANGEBURG     CLOUDY    71  69  93 CALM      29.87F
SUMTER SHAW    CLOUDY    70  68  94 E3        29.85F

.........WESTERN SC.........

CITY           SKY/WX    TMP DP  RH WIND       PRES   REMARKS
GREENVILLE     NOT AVBL
ROCK HILL      LGT RAIN  67  66  97 SW3       29.89F
ANDERSON       LGT RAIN  68  66  93 NW7       29.90F
CLEMSON        NOT AVBL
GREENWOOD      LGT RAIN  68  66  93 CALM      29.90F


...................COASTAL AND OFFSHORE REPORTS..................

................LOCAL PIERS AND NC RESERVE................


STATION/POSITION TIME  SKY/WX   TEMP    WIND        PRES    VSBY
                                AIR SEA DIR/SP/G
                 (UTC)          (F)     (DEG/KT/KT) (MB)    (MI)
JOHNY MRCER PIER 0648               75  120/  8/  9 1011.6F
NC RESRV MASNBRO 0545            67      40/  1     1015.0
OCEAN CREST PIER NOT AVBL
SPRINGMAID  PIER 0648                               1011.4F


................COASTAL AND OFFSHORE BUOYS................


STATION/POSITION TIME  SKY/WX   TEMP    WIND        PRES    VSBY
                                AIR SEA DIR/SP/G
                 (UTC)          (F)     (DEG/KT/KT) (MB)    (MI)
DIMNDSHOAL 41025 0650            74 78  190/ 17/ 19 1013.2F
WVE H/P(F/S)=  4/ 5 SWL H/P/D(F/S/D)=  2/ 90/ 8

CAPE LOOKOUT     0600            72     240/  5/  7 1013.6F
ONSLOW BAY 41036 NOT AVBL
ONSLOW BAY 41064 0608            72 76  250/  4/  8 1013.9F
ONSLOW BAY 41159 0643               76                N/A
WVE H/P(F/S)=  3/ 5

MASNBO INL 41110 0659               74                N/A
WVE H/P(F/S)=  2/ 8

WILM HARBR 41108 0647               76                N/A
WVE H/P(F/S)=  2/ 5

27SE WRITB 41037 0608            71 76   80/  4/  8 1028.2R
FRYING PAN 41013 0650            72 77   40/  4/  6 1013.0F
WVE H/P(F/S)=  3/ 4 SWL H/P/D(F/S/D)=  3/340/ 4

SUNST NRSH 41024 0608            72 76  120/ 10/ 14 1012.8F
CAPRS NRSH 41029 0608            76 77  210/ 17/ 25 1012.4F
EDISTO     41004 0650            77 78  190/ 17/ 25 1011.5F
WVE H/P(F/S)=  4/ 5 SWL H/P/D(F/S/D)=  2/140/ 8



..........OFFSHORE BUOYS BEYOND 100 NM OFFSHORE...........
.....IN A TRIANGLE---HAT TO BERMUDA TO BAHAMAS TO HAT.....


STATION/POSITION TIME  SKY/WX   TEMP    WIND        PRES    VSBY
                                AIR SEA DIR/SP/G
                 (UTC)          (F)     (DEG/KT/KT) (MB)    (MI)
150E HAT   41001 0700            74 73  210/ 12/ 16 1015.4
W BERMUDA  41048 0700            74 75  220/ 12/ 16 1018.1
ATLANTIC S 41049 0650            72 77   70/  4/  6 1020.5F
WVE H/P(F/S)=  3/ 8 SWL H/P/D(F/S/D)=  3/140/ 8

E BAHAMAS  41046 0700            78 80  100/ 12/ 14 1018.0
NE BAHAMAS 41047 0700            76 78  150/  8/ 10 1018.9
120E CANVRL41010 0650            78 79  170/ 16/ 17 1014.5F
WVE H/P(F/S)=  3/ 9 SWL H/P/D(F/S/D)=  2/ 70/ 9


END




USA.gov is the U.S. government's official web portal to all federal, state and local government web resources and services.